United States

Ashburn, VA Weather Archive

Below you will find the last 24 hours of weather readings for Ashburn VA

Ashburn VA Today's Weather Data

Observed at: Ashburn, VA

Hour Observerd Temp Pressure Visibility Humidity Dew Point Wind
03:00 Overcast 52°F (11.1°C) 101.46 kPa 10 miles 87% 48.3°F (9°C) 1 mph NW 315°
02:00 Overcast 51°F (10.6°C) 101.49 kPa 10 miles 86% 47°F (8.3°C) 1 mph NW 320°
01:00 Fair 51°F (10.6°C) 101.59 kPa 10 miles 84% 46.3°F (8°C) 1 mph NW 315°
00:00 Fair 51°F (10.6°C) 101.63 kPa 10 miles 83% 46°F (7.8°C) 1 mph NW 315°
23:00 Fair 51°F (10.6°C) 101.63 kPa 10 miles 81% 45.4°F (7.4°C) 1 mph NW 315°
22:00 Fair 51°F (10.6°C) 101.66 kPa 10 miles 79% 44.7°F (7.1°C) 1 mph NW 322°
21:00 Fair 52°F (11.1°C) 101.66 kPa 10 miles 75% 44.3°F (6.8°C) 1 mph NW 315°
20:00 Fair 54°F (12.2°C) 101.63 kPa 10 miles 70% 44.4°F (6.9°C) 1 mph NW 315°
19:00 Fair 58°F (14.4°C) 101.69 kPa 10 miles 63% 45.5°F (7.5°C) 1 mph NW 315°
18:00 Fair 59°F (15°C) 101.66 kPa 10 miles 60% 45.1°F (7.3°C) 1 mph NNW 348°2 mph
17:00 Fair 64°F (17.8°C) 101.66 kPa 10 miles 52% 46°F (7.8°C) 1 mph SSW 194°3 mph
16:00 Fair 65°F (18.3°C) 101.69 kPa 10 miles 52% 46.9°F (8.3°C) 1 mph S 188°4 mph
15:00 Fair 66°F (18.9°C) 101.69 kPa 10 miles 52% 47.9°F (8.8°C) 1 mph SSE 164°4 mph
14:00 Fair 64°F (17.8°C) 101.79 kPa 10 miles 51% 45.5°F (7.5°C) 2 mph S 171°4 mph
13:00 Fair 65°F (18.3°C) 101.86 kPa 10 miles 51% 46.4°F (8°C) 2 mph SSE 156°6 mph
12:00 Fair 61°F (16.1°C) 101.96 kPa 10 miles 57% 45.6°F (7.6°C) 1 mph SSW 203°6 mph
11:00 Fair 51°F (10.6°C) 102 kPa 10 miles 77% 44.1°F (6.7°C) 1 mph NW 315°3 mph
10:00 Fair 46°F (7.8°C) 102 kPa 10 miles 85% 41.8°F (5.4°C) 1 mph N 9°2 mph
09:00 Fair 39°F (3.9°C) 102.03 kPa 10 miles 98% 38.5°F (3.6°C) 1 mph N 10°2 mph
08:00 Fair 37°F (2.8°C) 102.03 kPa 10 miles 97% 36.2°F (2.4°C) 1 mph NW 315°
07:00 Fair 36°F (2.2°C) 102.03 kPa 10 miles 93% 34.2°F (1.2°C) 1 mph NW 315°
06:00 Fair 37°F (2.8°C) 102.03 kPa 10 miles 89% 34.1°F (1.1°C) 1 mph W 270°
05:00 Fair 40°F (4.4°C) 101.96 kPa 10 miles 84% 35.6°F (2°C) 1 mph NW 326°
04:00 Fair 41°F (5°C) 101.96 kPa 10 miles 86% 37.1°F (2.9°C) 1 mph SE 135°2 mph